Starlink 34334

operational
NORAD ID: 64273 Int'l Des: 2025-120 Owner: SPXS Country: US Constellation: starlink
LEOCIRCULAR

Starlink 34334について

説明を読み込み中...

リアルタイム位置

3D地球を読み込み中...

次回通過

高度履歴

Altitude vs Time

uPlot chart will show altitude changes over time

軌道要素

1 64273U 25120T 25352.78479316 .00027232 00000-0 92780-3 0 9999
2 64273 53.1596 132.1749 0001445 40.9642 319.1467 15.30213722 31538
Epoch: Dec 18, 2025 • Age: 27 hours

現在のステータス

高度 476.2 km
速度 7.63 km/s
衛星直下点 33.10°N, 102.26°E
打ち上げ日 Jun 4, 2025
運用期間 0.5 years
タイプ internet

技術仕様

分類 Payload
質量 575.00 kg
乾燥質量 530.00 kg
総質量 575.00 kg
長さ 0.30 m
直径 4.10 m
スパン 29.00 m
形状 Box + pan
製造者 SPXS
バスタイプ Starlink V2MO
フェーズステータス In Orbit
所有者/国 SPXS/US

大規模コンステレーション

Loading constellations...